Location: Ottawa
(45.4167°N, 75.7000°W)
Time: 23:30:57
(UTC-05:00)

OTV 5 (USA 277) - Pass Details

Date: 14 October 2017
Orbit: 404 x 417 km, 43.0° (Epoch: 07 September)

Event Time Altitude Azimuth Distance (km) Brightness Sun altitude
Rises 21:10:13 0° 271° (W) 2,356 ? -30.5°
Reaches altitude 10° 21:12:22 10° 265° (W) 1,491 ? -30.9°
Enters shadow 21:12:30 11° 265° (W) 1,441 ? -30.9°
